When you browse on this site, cookies collect data to enhance your experience and personalize the content and advertising you see.
Visit our Privacy Policy to learn more. By continuing to use the site, you agree to this use of cookies and data.
EN

Hourly Weather Nacogdoches

Today, 9 August, Sunday

Time Temperature Precipitation Wind Pressure Humidity
00:00 +26°C° 0 mm 2 mps 754 mmHg 87%
01:00 +26°C° 0 mm 2 mps 754 mmHg 89%
02:00 +26°C° 0 mm 2 mps 753 mmHg 90%
03:00 +25°C° 0 mm 1 mps 753 mmHg 91%
04:00 +25°C° 0 mm 1 mps 754 mmHg 92%
05:00 +25°C° 0 mm 1 mps 754 mmHg 93%
06:00 +25°C° 0 mm 1 mps 754 mmHg 94%
07:00 +27°C° 0 mm 1 mps 754 mmHg 86%
08:00 +29°C° 0 mm 2 mps 755 mmHg 77%
09:00 +31°C° 0 mm 2 mps 755 mmHg 69%
10:00 +32°C° 0 mm 2 mps 755 mmHg 62%
11:00 +35°C° 0 mm 2 mps 755 mmHg 55%
12:00 +37°C° 0 mm 2 mps 755 mmHg 47%
13:00 +37°C° 0 mm 2 mps 754 mmHg 45%
14:00 +38°C° 0 mm 2 mps 753 mmHg 43%
15:00 +38°C° 0 mm 2 mps 753 mmHg 40%
16:00 +36°C° 0 mm 1 mps 753 mmHg 46%
17:00 +35°C° 0 mm 1 mps 752 mmHg 52%
18:00 +34°C° 0 mm 1 mps 752 mmHg 58%
19:00 +32°C° 0 mm 1 mps 752 mmHg 62%
20:00 +31°C° 0 mm 2 mps 753 mmHg 67%
21:00 +29°C° 0 mm 2 mps 753 mmHg 72%
22:00 +28°C° 0 mm 2 mps 753 mmHg 76%
23:00 +27°C° 0 mm 2 mps 753 mmHg 81%

Tomorrow, 10 August, Monday

Time Temperature Precipitation Wind Pressure Humidity
00:00 +26°C° 0 mm 2 mps 753 mmHg 86%
01:00 +26°C° 0 mm 2 mps 753 mmHg 89%
02:00 +26°C° 0 mm 2 mps 753 mmHg 92%
03:00 +26°C° 0 mm 1 mps 753 mmHg 96%
04:00 +25°C° 0 mm 1 mps 753 mmHg 96%
05:00 +25°C° 0 mm 1 mps 753 mmHg 96%
06:00 +25°C° 0 mm 1 mps 753 mmHg 97%
07:00 +27°C° 0 mm 1 mps 754 mmHg 88%
08:00 +29°C° 0 mm 2 mps 754 mmHg 80%
09:00 +30°C° 0 mm 2 mps 754 mmHg 71%
10:00 +32°C° 0 mm 2 mps 754 mmHg 61%
11:00 +35°C° 0 mm 2 mps 754 mmHg 51%
12:00 +37°C° 0 mm 2 mps 754 mmHg 41%
13:00 +38°C° 0 mm 2 mps 753 mmHg 39%
14:00 +38°C° 0 mm 2 mps 752 mmHg 36%
15:00 +39°C° 0 mm 1 mps 752 mmHg 34%
16:00 +37°C° 0 mm 1 mps 751 mmHg 40%
17:00 +36°C° 0 mm 1 mps 751 mmHg 46%
18:00 +34°C° 0 mm 1 mps 751 mmHg 52%
19:00 +33°C° 0 mm 1 mps 751 mmHg 56%
20:00 +31°C° 0 mm 2 mps 751 mmHg 60%
21:00 +29°C° 0 mm 2 mps 751 mmHg 64%
22:00 +28°C° 0 mm 2 mps 751 mmHg 70%
23:00 +27°C° 0 mm 2 mps 751 mmHg 76%

Day after tomorrow, 11 August, Tuesday

Time Temperature Precipitation Wind Pressure Humidity
00:00 +27°C° 0 mm 2 mps 752 mmHg 82%
01:00 +26°C° 0 mm 2 mps 751 mmHg 85%
02:00 +26°C° 0 mm 2 mps 751 mmHg 87%
03:00 +25°C° 0 mm 1 mps 751 mmHg 90%
04:00 +25°C° 0 mm 1 mps 751 mmHg 92%
05:00 +24°C° 0 mm 1 mps 751 mmHg 95%
06:00 +24°C° 0 mm 1 mps 751 mmHg 97%
07:00 +26°C° 0 mm 1 mps 752 mmHg 88%
08:00 +29°C° 0 mm 2 mps 752 mmHg 80%
09:00 +31°C° 0 mm 2 mps 752 mmHg 71%
10:00 +34°C° 0 mm 2 mps 752 mmHg 60%
11:00 +36°C° 0 mm 2 mps 752 mmHg 50%
12:00 +38°C° 0 mm 2 mps 752 mmHg 40%
13:00 +38°C° 0 mm 2 mps 751 mmHg 38%
14:00 +39°C° 0 mm 2 mps 751 mmHg 36%
15:00 +39°C° 0 mm 2 mps 750 mmHg 34%
16:00 +38°C° 0 mm 2 mps 750 mmHg 40%
17:00 +37°C° 0 mm 2 mps 749 mmHg 47%
18:00 +35°C° 0 mm 1 mps 749 mmHg 53%
19:00 +34°C° 0 mm 2 mps 749 mmHg 58%
20:00 +31°C° 0 mm 2 mps 750 mmHg 63%
21:00 +30°C° 0 mm 3 mps 750 mmHg 69%
22:00 +29°C° 0 mm 2 mps 750 mmHg 74%
23:00 +28°C° 0 mm 2 mps 750 mmHg 79%

12 August, Wednesday

Time Temperature Precipitation Wind Pressure Humidity
00:00 +27°C° 0 mm 2 mps 750 mmHg 85%
01:00 +27°C° 0 mm 2 mps 750 mmHg 87%
02:00 +26°C° 0 mm 2 mps 750 mmHg 88%
03:00 +26°C° 0 mm 2 mps 750 mmHg 90%
04:00 +25°C° 0 mm 2 mps 750 mmHg 93%
05:00 +25°C° 0 mm 1 mps 751 mmHg 95%
06:00 +25°C° 0 mm 1 mps 751 mmHg 97%
07:00 +27°C° 0 mm 2 mps 751 mmHg 88%
08:00 +29°C° 0 mm 2 mps 751 mmHg 79%
09:00 +31°C° 0 mm 2 mps 752 mmHg 70%
10:00 +34°C° 0 mm 2 mps 752 mmHg 61%
11:00 +36°C° 0 mm 2 mps 751 mmHg 52%
12:00 +38°C° 0 mm 2 mps 751 mmHg 42%
13:00 +39°C° 0 mm 1 mps 751 mmHg 40%
14:00 +39°C° 0 mm 1 mps 750 mmHg 37%
15:00 +40°C° 0 mm 1 mps 750 mmHg 35%
16:00 +39°C° 0 mm 1 mps 749 mmHg 40%
17:00 +37°C° 0 mm 1 mps 749 mmHg 45%
18:00 +35°C° 0 mm 1 mps 749 mmHg 50%
19:00 +34°C° 0 mm 1 mps 750 mmHg 54%
20:00 +32°C° 0 mm 1 mps 750 mmHg 58%
21:00 +30°C° 0 mm 2 mps 750 mmHg 63%
22:00 +29°C° 0 mm 2 mps 750 mmHg 69%
23:00 +28°C° 0 mm 2 mps 751 mmHg 76%

13 August, Thursday

Time Temperature Precipitation Wind Pressure Humidity
00:00 +27°C° 0 mm 2 mps 751 mmHg 82%
01:00 +27°C° 0 mm 2 mps 751 mmHg 84%
02:00 +26°C° 0 mm 2 mps 751 mmHg 87%
03:00 +26°C° 0 mm 1 mps 751 mmHg 89%
04:00 +26°C° 0 mm 1 mps 751 mmHg 91%
05:00 +25°C° 0 mm 1 mps 751 mmHg 93%
06:00 +25°C° 0 mm 1 mps 751 mmHg 95%
07:00 +27°C° 0 mm 1 mps 752 mmHg 86%
08:00 +29°C° 0 mm 1 mps 752 mmHg 77%
09:00 +32°C° 0 mm 2 mps 752 mmHg 68%
10:00 +34°C° 0 mm 1 mps 752 mmHg 60%
11:00 +36°C° 0 mm 1 mps 752 mmHg 52%
12:00 +39°C° 0 mm 1 mps 752 mmHg 44%
13:00 +39°C° 0 mm 1 mps 751 mmHg 42%
14:00 +39°C° 0 mm 1 mps 750 mmHg 39%
15:00 +40°C° 0 mm 1 mps 750 mmHg 37%
16:00 +37°C° 0 mm 1 mps 750 mmHg 42%
17:00 +36°C° 0 mm 1 mps 749 mmHg 48%
18:00 +35°C° 0 mm 1 mps 749 mmHg 54%
19:00 +33°C° 0 mm 1 mps 750 mmHg 57%
20:00 +32°C° 0 mm 1 mps 750 mmHg 59%
21:00 +30°C° 0 mm 2 mps 751 mmHg 62%
22:00 +29°C° 0 mm 2 mps 751 mmHg 69%
23:00 +28°C° 0 mm 2 mps 751 mmHg 76%

14 August, Friday

Time Temperature Precipitation Wind Pressure Humidity
00:00 +27°C° 0 mm 2 mps 750 mmHg 84%
01:00 +27°C° 0 mm 2 mps 750 mmHg 86%
02:00 +26°C° 0 mm 2 mps 750 mmHg 88%
03:00 +26°C° 0 mm 1 mps 750 mmHg 90%
04:00 +26°C° 0 mm 1 mps 751 mmHg 92%
05:00 +25°C° 0 mm 1 mps 751 mmHg 94%
06:00 +23°C° 0 mm 0 mps 751 mmHg 96%
07:00 +27°C° 0 mm 1 mps 751 mmHg 86%
08:00 +29°C° 0 mm 1 mps 752 mmHg 77%
09:00 +32°C° 0 mm 1 mps 752 mmHg 67%
10:00 +34°C° 0 mm 1 mps 752 mmHg 59%
11:00 +36°C° 0 mm 1 mps 752 mmHg 50%
12:00 +39°C° 0 mm 1 mps 752 mmHg 42%
13:00 +39°C° 0 mm 1 mps 751 mmHg 41%
14:00 +39°C° 0 mm 1 mps 751 mmHg 40%
15:00 +39°C° 0 mm 1 mps 750 mmHg 39%
16:00 +37°C° 0 mm 1 mps 750 mmHg 44%
17:00 +36°C° 0 mm 1 mps 750 mmHg 48%
18:00 +35°C° 0 mm 1 mps 749 mmHg 52%
19:00 +33°C° 0 mm 1 mps 750 mmHg 56%
20:00 +31°C° 0 mm 2 mps 750 mmHg 60%
21:00 +30°C° 0 mm 2 mps 750 mmHg 64%
22:00 +29°C° 0 mm 2 mps 751 mmHg 71%
23:00 +28°C° 0 mm 1 mps 751 mmHg 78%
Show more